COSMOS 2251 DEB, 40233

Orbit data source: Space-Track

COSMOS 2251 DEB, 40233 is space debris in LEO originally from a launch on Wed, 16 Jun 1993 UTC launched from the Plesetsk Missile And Space Complex (PKMTR). The debris from Iridium 33, an American commercial communications satellite, has been tracked extensively since its accidental collision with the defunct Russian satellite Cosmos 2251 in 2009. This event, occurring at high speed in low Earth orbit (LEO), generated thousands of pieces of space debris, significantly increasing the risk of further collisions. The Iridium 33 debris cloud has impacted space traffic management and orbital debris mitigation strategies, making it a subject of ongoing study in space situational awareness.

Loading next visibility...
Identifier
40233, 1993-036BVN
Orbit
LEO
Country
Flag of CISCIS
Related business
Manufacturer
Unknown
Mission
Spacecraft
Bus & Motor
Unknown
Mass
Unknown
Launch date (UTC)
1993-06-16 (32 years ago)
Launch vehicle
Unknown
Launch site
Plesetsk Missile And Space Complex (PKMTR)
Object type
Payload
Rocket body
Debris
Shape & HBR
Unknown shape, 0.1 m
Radar Cross Section
Small (<0.1 m²)

Expand to show TLE details & history
Last TLE update: 12 hours ago

TLE from 12 hours ago
0 COSMOS 2251 DEB
1 40233U 93036BVN 25308.93457489  .00004008  00000-0  86850-3 0  9992
2 40233  73.9403 175.4500 0047992 256.7480 102.8328 14.57808514585864
Epoch: 2025-11-04T22:25Z
TLE epoch observation values (Epoch: 2025-11-04T22:25:47.270Z)
Latitude
-0.00008°
Longitude
154.58855°
Altitude
710.592 km
Speed
7.497 km/s
True Right ascension
11h 41m 47s
True Declination
0° 00' 00"
Sunlit
Object was in daylight at epoch
Visualization orbit readout
Latitude
Unknown
Longitude
Unknown
Altitude
Unknown
Speed
Unknown
Apparent Right ascension
Unknown
Apparent Declination
Unknown
Sunlit
N/A
Visualization observer readout
Local Sidereal Time
06:28:54
Azimuth
Unknown
Elevation
Unknown
Doppler factor
Unknown
Orbital elements
Apogee altitude
731.826 km
Perigee altitude
663.908 km
Semi-major axis
7,076.004 km
Eccentricity
0.0048
Inclination
73.9403°
RAAN
175.45°
Arg. of periapsis
256.748°
True anomaly
103.36829°
Mean anomaly
102.8328°
Eccentric anomaly
103.10062°
Mean motion
3.64637 °/min
Orbital period
98.73 mins
BSTAR
0.0008685
Loading maneuver chart data...
Computing Atmospheric mass density...

Documentation

Showing up to 5 results
|